Time,TemperatureF,DewpointF,PressureIn,WindDirection,WindDirectionDegrees,WindSpeedMPH,WindSpeedGustMPH,Humidity,HourlyPrecipIn,Conditions,Clouds,dailyrainin,SoftwareType,DateUTC
2013-06-22 10:02:00,67.0,64.0,-100.00,SW,235,7.0,21.0,91,0.08,,,-99.99,,2013-06-22 15:02:00,
2013-06-22 10:12:00,67.0,64.0,-100.00,SW,235,7.0,21.0,91,0.08,,,-99.99,,2013-06-22 15:12:00,
2013-06-22 10:22:00,67.0,64.0,-100.00,SW,235,7.0,21.0,91,0.08,,,-99.99,,2013-06-22 15:22:00,
2013-06-22 10:43:00,67.0,65.0,-100.00,South,185,9.0,19.0,91,0.00,,,-99.99,,2013-06-22 15:43:00,
2013-06-22 10:53:00,67.0,65.0,-100.00,South,185,9.0,19.0,91,0.00,,,-99.99,,2013-06-22 15:53:00,
2013-06-22 11:02:00,67.0,65.0,-100.00,South,185,9.0,19.0,91,0.00,,,-99.99,,2013-06-22 16:02:00,
2013-06-22 11:12:00,67.0,65.0,-100.00,South,185,9.0,19.0,91,0.00,,,-99.99,,2013-06-22 16:12:00,
2013-06-22 11:22:00,67.0,65.0,-100.00,South,185,9.0,19.0,91,0.00,,,-99.99,,2013-06-22 16:22:00,
2013-06-22 11:52:00,69.0,65.0,-100.00,ENE,60,5.0,11.0,90,0.00,,,-99.99,,2013-06-22 16:52:00,
2013-06-22 12:02:00,69.0,65.0,-100.00,ENE,60,5.0,11.0,90,0.00,,,-99.99,,2013-06-22 17:02:00,
2013-06-22 12:11:00,69.0,65.0,-100.00,ENE,60,5.0,11.0,90,0.00,,,-99.99,,2013-06-22 17:11:00,
2013-06-22 12:22:00,69.0,65.0,-100.00,ENE,60,5.0,11.0,90,0.00,,,-99.99,,2013-06-22 17:22:00,
2013-06-22 12:43:00,71.0,66.0,-100.00,North,-999,-999.0,-999.0,86,0.00,,,-99.99,,2013-06-22 17:43:00,
2013-06-22 12:52:00,71.0,67.0,-100.00,NNW,335,4.0,10.0,85,0.00,,,-99.99,,2013-06-22 17:52:00,
2013-06-22 13:02:00,71.0,67.0,-100.00,NNW,335,4.0,10.0,85,0.00,,,-99.99,,2013-06-22 18:02:00,
2013-06-22 13:12:00,71.0,67.0,-100.00,NNW,335,4.0,10.0,85,0.00,,,-99.99,,2013-06-22 18:12:00,
2013-06-22 13:23:00,71.0,67.0,-100.00,NNW,335,4.0,10.0,85,0.00,,,-99.99,,2013-06-22 18:23:00,
2013-06-22 13:43:00,77.0,66.0,-100.00,WNW,285,2.0,7.0,69,0.00,,,-99.99,,2013-06-22 18:43:00,
2013-06-22 13:52:00,77.0,66.0,-100.00,WNW,285,2.0,7.0,69,0.00,,,-99.99,,2013-06-22 18:52:00,
2013-06-22 14:01:00,77.0,66.0,-100.00,WNW,285,2.0,7.0,69,0.00,,,-99.99,,2013-06-22 19:01:00,
2013-06-22 14:11:00,77.0,66.0,-100.00,WNW,285,2.0,7.0,69,0.00,,,-99.99,,2013-06-22 19:11:00,
2013-06-22 14:22:00,77.0,66.0,-100.00,WNW,285,2.0,7.0,69,0.00,,,-99.99,,2013-06-22 19:22:00,
2013-06-22 14:43:00,78.0,64.0,-100.00,North,10,2.0,5.0,62,0.00,,,-99.99,,2013-06-22 19:43:00,
2013-06-22 14:53:00,78.0,64.0,-100.00,North,10,2.0,5.0,62,0.00,,,-99.99,,2013-06-22 19:53:00,
2013-06-22 15:02:00,78.0,64.0,-100.00,North,10,2.0,5.0,62,0.00,,,-99.99,,2013-06-22 20:02:00,
2013-06-22 15:11:00,78.0,64.0,-100.00,North,10,2.0,5.0,62,0.00,,,-99.99,,2013-06-22 20:11:00,
2013-06-22 15:22:00,78.0,64.0,-100.00,North,10,2.0,5.0,62,0.00,,,-99.99,,2013-06-22 20:22:00,
2013-06-22 15:53:00,77.0,66.0,-100.00,NE,55,7.0,11.0,69,0.00,,,-99.99,,2013-06-22 20:53:00,
2013-06-22 16:01:00,77.0,66.0,-100.00,NE,55,7.0,11.0,69,0.00,,,-99.99,,2013-06-22 21:01:00,
2013-06-22 16:11:00,77.0,66.0,-100.00,NE,55,7.0,11.0,69,0.00,,,-99.99,,2013-06-22 21:11:00,
2013-06-22 16:22:00,77.0,66.0,-100.00,NE,55,7.0,11.0,69,0.00,,,-99.99,,2013-06-22 21:22:00,
2013-06-22 16:23:00,78.0,66.0,-100.00,NE,55,6.0,11.0,68,0.00,,,-99.99,,2013-06-22 21:23:00,
2013-06-22 16:43:00,78.0,66.0,-100.00,NE,55,6.0,11.0,68,0.00,,,-99.99,,2013-06-22 21:43:00,
2013-06-22 16:53:00,78.0,66.0,-100.00,NE,55,6.0,11.0,68,0.00,,,-99.99,,2013-06-22 21:53:00,
2013-06-22 17:02:00,78.0,66.0,-100.00,NE,55,6.0,11.0,68,0.00,,,-99.99,,2013-06-22 22:02:00,
2013-06-22 17:12:00,78.0,66.0,-100.00,NE,55,6.0,11.0,68,0.00,,,-99.99,,2013-06-22 22:12:00,
2013-06-22 17:43:00,76.0,68.0,-100.00,ENE,60,3.0,6.0,76,0.00,,,-99.99,,2013-06-22 22:43:00,
2013-06-22 17:52:00,76.0,68.0,-100.00,ENE,60,3.0,6.0,76,0.00,,,-99.99,,2013-06-22 22:52:00,
2013-06-22 18:01:00,76.0,68.0,-100.00,ENE,60,3.0,6.0,76,0.00,,,-99.99,,2013-06-22 23:01:00,
2013-06-22 18:11:00,76.0,68.0,-100.00,ENE,60,3.0,6.0,76,0.00,,,-99.99,,2013-06-22 23:11:00,
2013-06-22 18:22:00,76.0,68.0,-100.00,ENE,60,3.0,6.0,76,0.00,,,-99.99,,2013-06-22 23:22:00,
2013-06-22 18:52:00,76.0,69.0,-100.00,ENE,75,4.0,7.0,77,0.00,,,-99.99,,2013-06-22 23:52:00,
2013-06-22 19:01:00,76.0,69.0,-100.00,ENE,75,4.0,7.0,77,0.00,,,-99.99,,2013-06-23 00:01:00,
2013-06-22 19:11:00,76.0,69.0,-100.00,ENE,75,4.0,7.0,77,0.00,,,-99.99,,2013-06-23 00:11:00,
2013-06-22 19:22:00,76.0,69.0,-100.00,ENE,75,4.0,7.0,77,0.00,,,-99.99,,2013-06-23 00:22:00,
2013-06-22 19:53:00,74.0,70.0,-100.00,East,80,4.0,10.0,87,0.00,,,-99.99,,2013-06-23 00:53:00,
2013-06-22 20:01:00,74.0,70.0,-100.00,East,80,4.0,10.0,87,0.00,,,-99.99,,2013-06-23 01:01:00,
2013-06-22 20:11:00,74.0,70.0,-100.00,East,80,4.0,10.0,87,0.00,,,-99.99,,2013-06-23 01:11:00,
2013-06-22 20:22:00,74.0,70.0,-100.00,East,80,4.0,10.0,87,0.00,,,-99.99,,2013-06-23 01:22:00,
2013-06-22 20:42:00,73.0,70.0,-100.00,ENE,75,6.0,8.0,89,0.00,,,-99.99,,2013-06-23 01:42:00,
2013-06-22 20:52:00,73.0,70.0,-100.00,ENE,75,6.0,8.0,89,0.00,,,-99.99,,2013-06-23 01:52:00,
2013-06-22 21:01:00,73.0,70.0,-100.00,ENE,75,6.0,8.0,89,0.00,,,-99.99,,2013-06-23 02:01:00,
2013-06-22 21:11:00,73.0,70.0,-100.00,ENE,75,6.0,8.0,89,0.00,,,-99.99,,2013-06-23 02:11:00,
2013-06-22 21:21:00,73.0,70.0,-100.00,ENE,75,6.0,8.0,89,0.00,,,-99.99,,2013-06-23 02:21:00,
2013-06-22 21:52:00,72.0,69.0,-100.00,South,175,6.0,11.0,90,0.00,,,-99.99,,2013-06-23 02:52:00,
2013-06-22 22:01:00,72.0,69.0,-100.00,South,175,6.0,11.0,90,0.00,,,-99.99,,2013-06-23 03:01:00,
2013-06-22 22:11:00,72.0,69.0,-100.00,South,175,6.0,11.0,90,0.00,,,-99.99,,2013-06-23 03:11:00,
2013-06-22 22:21:00,72.0,69.0,-100.00,South,175,6.0,11.0,90,0.00,,,-99.99,,2013-06-23 03:21:00,
2013-06-22 22:52:00,68.0,65.0,-100.00,North,0,6.0,12.0,90,0.86,,,-99.99,,2013-06-23 03:52:00,
2013-06-22 23:01:00,68.0,65.0,-100.00,North,0,6.0,12.0,90,0.86,,,-99.99,,2013-06-23 04:01:00,
2013-06-22 23:11:00,68.0,65.0,-100.00,North,0,6.0,12.0,90,0.86,,,-99.99,,2013-06-23 04:11:00,
2013-06-22 23:21:00,68.0,65.0,-100.00,North,0,6.0,12.0,90,0.86,,,-99.99,,2013-06-23 04:21:00,
2013-06-22 23:52:00,68.0,65.0,-100.00,SW,230,2.0,6.0,91,0.24,,,-99.99,,2013-06-23 04:52:00,